User: anonymous   Login
Location: Hopkins Observatory
(42.6965°N, 73.1843°W)
Time: 05:22:24
(UTC-05:00)
Language:

UOSAT-12 - Orbit

View from above orbital plane
View from above orbital plane
View from above satellite
View from above satellite

Ground track
Ground track

The orbit data is extracted from the following two-line orbital elements,

1 25693U 99021A   15026.80082166  .00000156  00000-0  39226-4 0  7302
2 25693 064.5568 293.7539 0048291 259.4125 164.9822 14.80281673851018
Epoch (UTC): 26 January 2015 19:13:10
Eccentricity: 0.0048291
inclination: 64.5568°
perigee height: 594 km
apogee height: 662 km
right ascension of ascending node: 293.7539°
argument of perigee: 259.4125°
revolutions per day: 14.80281673
mean anomaly at epoch: 164.9822°
orbit number at epoch: 85101

The dashed part of the orbit path shows where the satellite is in the earth's shadow,  

DLR